ABW8891 UHHH-UHMM

Flight info

Callsign ABW8891
Flight time 2h 3m
Altitude 37000
Route UHHH TOMSU N222 NA L160 BANOT UHMM
Aircraft B77L/H-SDE2E3FGHIJ5LORVWXY/LB1D1

Departure

Time 2026-05-04 16:23
Airport Khabarovsk Novy Airport (UHHH)

Arrival

Time 2026-05-04 18:26
Airport Sokol Airport (UHMM)
Time Latitude Longitude Altitude Speed Heading
2026-05-04 15:48 48.52746 135.17656 259 ft 0 kts 311°
2026-05-04 16:13 48.52764 135.17627 259 ft 4 kts 313°
2026-05-04 16:14 48.52845 135.17631 259 ft 9 kts 36°
2026-05-04 16:14 48.52923 135.17827 259 ft 13 kts 123°
2026-05-04 16:15 48.52842 135.18181 259 ft 15 kts 44°
2026-05-04 16:16 48.53018 135.18427 259 ft 15 kts 42°
2026-05-04 16:16 48.52956 135.18720 259 ft 11 kts 122°
2026-05-04 16:17 48.52968 135.18988 259 ft 15 kts 77°
2026-05-04 16:18 48.53105 135.19505 259 ft 20 kts 43°
2026-05-04 16:18 48.53213 135.19655 259 ft 21 kts 42°
2026-05-04 16:19 48.53585 135.20163 259 ft 26 kts 42°
2026-05-04 16:19 48.53784 135.20389 259 ft 10 kts 352°
2026-05-04 16:20 48.53912 135.20084 259 ft 15 kts 230°
2026-05-04 16:20 48.53828 135.19961 259 ft 0 kts 221°
2026-05-04 16:22 48.53355 135.19316 259 ft 119 kts 222°
2026-05-04 16:23 48.51012 135.15877 2262 ft 173 kts 225°
2026-05-04 16:24 48.46870 135.10477 4612 ft 226 kts 223°
2026-05-04 16:25 48.44394 135.07108 5327 ft 254 kts 223°
2026-05-04 16:26 48.42596 134.97765 7519 ft 270 kts 302°
2026-05-04 16:26 48.47744 134.94650 9124 ft 285 kts 351°
2026-05-04 16:27 48.51729 134.93933 9977 ft 297 kts 351°
2026-05-04 16:28 48.58358 134.92737 10266 ft 342 kts 351°
2026-05-04 16:28 48.65760 134.92397 10667 ft 370 kts
2026-05-04 16:29 48.74271 135.00786 12112 ft 383 kts 54°
2026-05-04 16:30 48.77705 135.11804 13425 ft 392 kts 67°
2026-05-04 16:31 48.79844 135.19493 14434 ft 399 kts 67°
2026-05-04 16:31 48.83114 135.31300 16099 ft 410 kts 66°
2026-05-04 16:32 48.86459 135.43434 17720 ft 421 kts 66°
2026-05-04 16:33 48.88734 135.51726 18781 ft 429 kts 66°
2026-05-04 16:33 48.91029 135.60113 19824 ft 437 kts 66°
2026-05-04 16:34 48.93387 135.68771 20852 ft 445 kts 67°
2026-05-04 16:34 48.94570 135.73123 21348 ft 449 kts 67°
2026-05-04 16:35 48.98678 135.86021 22819 ft 459 kts 52°
2026-05-04 16:35 49.05310 135.96655 24274 ft 468 kts 43°
2026-05-04 16:36 49.07655 136.00203 24755 ft 472 kts 43°
2026-05-04 16:36 49.12341 136.07326 25777 ft 478 kts 43°
2026-05-04 16:37 49.17054 136.14522 26740 ft 485 kts 43°
2026-05-04 16:37 49.19443 136.18181 27187 ft 489 kts 42°
2026-05-04 16:37 49.24303 136.25641 28055 ft 498 kts 42°
2026-05-04 16:38 49.29216 136.33209 28950 ft 505 kts 42°
2026-05-04 16:39 49.36626 136.44672 30558 ft 507 kts 42°
2026-05-04 16:39 49.41552 136.52319 31805 ft 504 kts 42°
2026-05-04 16:40 49.46853 136.59293 32877 ft 499 kts 30°
2026-05-04 16:40 49.52579 136.65143 34018 ft 497 kts 30°
2026-05-04 16:41 49.58337 136.71017 35062 ft 496 kts 30°
2026-05-04 16:41 49.66915 136.79814 36483 ft 493 kts 30°
2026-05-04 16:42 49.75525 136.88687 36809 ft 495 kts 30°
2026-05-04 16:43 49.81244 136.94608 36814 ft 494 kts 30°
2026-05-04 16:43 49.89801 137.03496 36811 ft 495 kts 30°
2026-05-04 16:45 50.06950 137.21429 36819 ft 496 kts 30°
2026-05-04 16:46 50.21159 137.36574 36817 ft 495 kts 31°
2026-05-04 16:47 50.32515 137.48793 36815 ft 496 kts 31°
2026-05-04 16:48 50.43691 137.61391 36816 ft 495 kts 34°
2026-05-04 16:49 50.54593 137.74660 36808 ft 497 kts 35°
2026-05-04 16:50 50.65512 137.87964 36810 ft 496 kts 34°
2026-05-04 16:51 50.73694 137.97971 36814 ft 497 kts 35°
2026-05-04 16:52 50.84602 138.11379 36813 ft 497 kts 35°
2026-05-04 16:53 50.92742 138.21417 36815 ft 498 kts 32°
2026-05-04 16:54 51.04421 138.33391 36821 ft 502 kts 28°
2026-05-04 16:55 51.21971 138.51535 36819 ft 503 kts 28°
2026-05-04 16:56 51.36576 138.66835 36807 ft 503 kts 29°
2026-05-04 16:57 51.45318 138.76057 36809 ft 504 kts 29°
2026-05-04 16:58 51.56966 138.88415 36810 ft 503 kts 29°
2026-05-04 17:00 51.74440 139.07097 36815 ft 504 kts 29°
2026-05-04 17:01 51.88960 139.22759 36815 ft 502 kts 29°
2026-05-04 17:02 52.00586 139.35390 36818 ft 503 kts 29°
2026-05-04 17:03 52.09248 139.44849 36817 ft 503 kts 29°
2026-05-04 17:03 52.17923 139.54367 36823 ft 504 kts 29°
2026-05-04 17:04 52.29526 139.67174 36809 ft 503 kts 30°
2026-05-04 17:05 52.41065 139.79990 36813 ft 505 kts 30°
2026-05-04 17:06 52.49709 139.89650 36813 ft 502 kts 30°
2026-05-04 17:07 52.57411 139.98291 36817 ft 503 kts 30°
2026-05-04 17:07 52.64166 140.05911 36834 ft 505 kts 31°
2026-05-04 17:08 52.72612 140.16187 36850 ft 505 kts 32°
2026-05-04 17:09 52.78239 140.23077 36858 ft 504 kts 32°
2026-05-04 17:09 52.83785 140.29881 36856 ft 503 kts 32°
2026-05-04 17:10 52.97799 140.47147 36862 ft 507 kts 32°
2026-05-04 17:11 53.03409 140.54095 36862 ft 508 kts 31°
2026-05-04 17:12 53.12028 140.64812 36863 ft 516 kts 30°
2026-05-04 17:13 53.26859 140.80942 36851 ft 511 kts 24°
2026-05-04 17:14 53.38730 140.93103 36852 ft 510 kts 24°
2026-05-04 17:15 53.47498 141.02197 36855 ft 511 kts 24°
2026-05-04 17:16 53.59358 141.14598 36857 ft 510 kts 24°
2026-05-04 17:17 53.71169 141.27039 36860 ft 510 kts 24°
2026-05-04 17:18 53.82967 141.39555 36862 ft 512 kts 24°
2026-05-04 17:19 53.94809 141.52206 36864 ft 511 kts 24°
2026-05-04 17:20 54.06689 141.64986 36866 ft 510 kts 24°
2026-05-04 17:20 54.15661 141.74693 36849 ft 511 kts 25°
2026-05-04 17:21 54.27545 141.87633 36852 ft 510 kts 25°
2026-05-04 17:22 54.33497 141.94145 36852 ft 511 kts 25°
2026-05-04 17:23 54.45248 142.07072 36856 ft 510 kts 25°
2026-05-04 17:24 54.54044 142.16808 36857 ft 509 kts 25°
2026-05-04 17:25 54.65874 142.29980 36858 ft 509 kts 25°
2026-05-04 17:26 54.77657 142.43192 36862 ft 511 kts 25°
2026-05-04 17:27 54.92197 142.59625 36864 ft 509 kts 25°
2026-05-04 17:28 55.03570 142.72583 36852 ft 503 kts 26°
2026-05-04 17:29 55.20942 142.92545 36853 ft 501 kts 25°
2026-05-04 17:31 55.35006 143.09091 36854 ft 500 kts 26°
2026-05-04 17:32 55.49429 143.26225 36869 ft 499 kts 26°
2026-05-04 17:33 55.60901 143.39963 36880 ft 499 kts 26°
2026-05-04 17:34 55.72353 143.53773 36882 ft 499 kts 25°
2026-05-04 17:35 55.86716 143.71236 36872 ft 501 kts 26°
2026-05-04 17:36 55.92446 143.78247 36873 ft 501 kts 26°
2026-05-04 17:36 55.98188 143.85300 36873 ft 500 kts 26°
2026-05-04 17:37 56.03929 143.92377 36874 ft 501 kts 26°
2026-05-04 17:37 56.09645 143.99449 36875 ft 501 kts 26°
2026-05-04 17:38 56.15371 144.06560 36876 ft 501 kts 26°
2026-05-04 17:38 56.21091 144.13689 36877 ft 501 kts 26°
2026-05-04 17:39 56.29662 144.24420 36877 ft 500 kts 27°
2026-05-04 17:39 56.35321 144.31692 36879 ft 502 kts 27°
2026-05-04 17:40 56.40992 144.39033 36880 ft 500 kts 27°
2026-05-04 17:40 56.46661 144.46394 36882 ft 502 kts 27°
2026-05-04 17:41 56.52333 144.53781 36882 ft 501 kts 27°
2026-05-04 17:41 56.57963 144.61142 36885 ft 502 kts 27°
2026-05-04 17:42 56.63631 144.68578 36872 ft 501 kts 28°
2026-05-04 17:42 56.69259 144.75989 36872 ft 502 kts 28°
2026-05-04 17:43 56.74931 144.83487 36873 ft 501 kts 28°
2026-05-04 17:43 56.80557 144.90950 36875 ft 502 kts 28°
2026-05-04 17:44 56.86194 144.98459 36875 ft 501 kts 28°
2026-05-04 17:44 56.91828 145.05994 36876 ft 500 kts 28°
2026-05-04 17:45 56.97389 145.13455 36877 ft 498 kts 28°
2026-05-04 17:45 57.02932 145.20931 36875 ft 485 kts 29°
2026-05-04 17:46 57.08297 145.28185 36876 ft 477 kts 31°
2026-05-04 17:46 57.13577 145.35349 36875 ft 471 kts 32°
2026-05-04 17:47 57.18866 145.42548 36879 ft 473 kts 32°
2026-05-04 17:47 57.24119 145.49728 36879 ft 472 kts 32°
2026-05-04 17:48 57.29409 145.56984 36879 ft 472 kts 32°
2026-05-04 17:48 57.34652 145.64203 36881 ft 472 kts 32°
2026-05-04 17:49 57.39948 145.71523 36873 ft 472 kts 32°
2026-05-04 17:49 57.45216 145.78830 36876 ft 473 kts 32°
2026-05-04 17:50 57.50472 145.86148 36872 ft 472 kts 32°
2026-05-04 17:50 57.55707 145.93462 36875 ft 473 kts 32°
2026-05-04 17:51 57.60940 146.00803 36874 ft 472 kts 32°
2026-05-04 17:51 57.66205 146.08214 36877 ft 472 kts 32°
2026-05-04 17:52 57.71435 146.15605 36874 ft 472 kts 32°
2026-05-04 17:52 57.76664 146.23021 36874 ft 472 kts 32°
2026-05-04 17:53 57.81822 146.30362 36876 ft 472 kts 32°
2026-05-04 17:53 57.87047 146.37828 36874 ft 473 kts 32°
2026-05-04 17:54 57.92266 146.45312 36877 ft 472 kts 32°
2026-05-04 17:54 57.97461 146.52792 36878 ft 472 kts 32°
2026-05-04 17:55 58.02667 146.60315 36876 ft 472 kts 32°
2026-05-04 17:55 58.07886 146.67883 36873 ft 473 kts 33°
2026-05-04 17:56 58.13061 146.75420 36873 ft 472 kts 33°
2026-05-04 17:56 58.18251 146.83003 36874 ft 473 kts 33°
2026-05-04 17:57 58.23465 146.90651 36874 ft 472 kts 33°
2026-05-04 17:57 58.28683 146.98335 36879 ft 474 kts 33°
2026-05-04 17:58 58.33886 147.06027 36875 ft 474 kts 33°
2026-05-04 17:58 58.39074 147.13725 36873 ft 475 kts 33°
2026-05-04 17:59 58.44272 147.21469 36873 ft 474 kts 33°
2026-05-04 18:00 58.51744 147.32654 36504 ft 469 kts 33°
2026-05-04 18:00 58.54326 147.36531 36150 ft 471 kts 33°
2026-05-04 18:00 58.56915 147.40428 35788 ft 473 kts 33°
2026-05-04 18:00 58.59479 147.44295 35452 ft 474 kts 33°
2026-05-04 18:01 58.62086 147.48233 35183 ft 474 kts 33°
2026-05-04 18:01 58.64675 147.52155 34950 ft 473 kts 33°
2026-05-04 18:01 58.67242 147.56049 34677 ft 473 kts 33°
2026-05-04 18:02 58.72420 147.63922 33950 ft 476 kts 33°
2026-05-04 18:02 58.75034 147.67909 33649 ft 477 kts 34°
2026-05-04 18:02 58.77609 147.71848 33337 ft 477 kts 34°
2026-05-04 18:02 58.80217 147.75842 33015 ft 478 kts 34°
2026-05-04 18:03 58.82838 147.79868 32713 ft 478 kts 34°
2026-05-04 18:03 58.85404 147.83818 32392 ft 474 kts 34°
2026-05-04 18:03 58.87983 147.87795 31543 ft 476 kts 34°
2026-05-04 18:03 58.90581 147.91808 30565 ft 480 kts 35°
2026-05-04 18:04 58.93151 147.95785 29978 ft 474 kts 35°
2026-05-04 18:04 58.95699 147.99739 29448 ft 467 kts 36°
2026-05-04 18:04 59.00695 148.07513 28304 ft 456 kts 36°
2026-05-04 18:05 59.03144 148.11333 27726 ft 450 kts 36°
2026-05-04 18:05 59.05482 148.14986 27173 ft 445 kts 36°
2026-05-04 18:05 59.07806 148.18625 26615 ft 439 kts 36°
2026-05-04 18:05 59.09981 148.22035 26081 ft 435 kts 36°
2026-05-04 18:06 59.14555 148.29228 24945 ft 425 kts 36°
2026-05-04 18:06 59.16545 148.32365 24451 ft 420 kts 36°
2026-05-04 18:06 59.18234 148.35031 24024 ft 416 kts 36°
2026-05-04 18:07 59.21068 148.39513 23301 ft 410 kts 36°
2026-05-04 18:07 59.23240 148.42955 22749 ft 404 kts 36°
2026-05-04 18:07 59.25418 148.46411 22183 ft 399 kts 36°
2026-05-04 18:07 59.27563 148.49821 21623 ft 394 kts 36°
2026-05-04 18:08 59.29675 148.53186 21073 ft 389 kts 36°
2026-05-04 18:08 59.31750 148.56496 20523 ft 384 kts 36°
2026-05-04 18:08 59.33779 148.59737 19984 ft 380 kts 36°
2026-05-04 18:08 59.35871 148.63080 19429 ft 390 kts 36°
2026-05-04 18:09 59.40033 148.69759 18301 ft 383 kts 37°
2026-05-04 18:09 59.44030 148.76192 17228 ft 376 kts 37°
2026-05-04 18:10 59.46046 148.79443 16684 ft 373 kts 37°
2026-05-04 18:10 59.48032 148.82654 16148 ft 370 kts 37°
2026-05-04 18:10 59.49828 148.85559 15663 ft 367 kts 37°
2026-05-04 18:10 59.51785 148.88730 15131 ft 364 kts 37°
2026-05-04 18:11 59.53596 148.91670 14640 ft 362 kts 37°
2026-05-04 18:11 59.55325 148.94479 14171 ft 359 kts 37°
2026-05-04 18:11 59.57407 148.97868 13597 ft 356 kts 37°
2026-05-04 18:11 59.59301 149.00955 13077 ft 353 kts 37°
2026-05-04 18:12 59.61192 149.04044 12556 ft 351 kts 37°
2026-05-04 18:12 59.62804 149.06679 12108 ft 348 kts 37°
2026-05-04 18:12 59.64718 149.09813 11567 ft 344 kts 37°
2026-05-04 18:12 59.66077 149.12042 11184 ft 341 kts 38°
2026-05-04 18:13 59.68023 149.16360 10562 ft 338 kts 55°
2026-05-04 18:13 59.69178 149.20326 10353 ft 321 kts 58°
2026-05-04 18:13 59.71188 149.27704 10014 ft 291 kts 59°
2026-05-04 18:14 59.72118 149.31168 9824 ft 281 kts 59°
2026-05-04 18:14 59.73026 149.34557 9626 ft 273 kts 59°
2026-05-04 18:14 59.73889 149.37784 9421 ft 270 kts 59°
2026-05-04 18:15 59.75438 149.43587 9255 ft 269 kts 59°
2026-05-04 18:15 59.77288 149.50543 8897 ft 266 kts 59°
2026-05-04 18:15 59.78146 149.53778 8695 ft 265 kts 59°
2026-05-04 18:16 59.78995 149.56982 8494 ft 263 kts 59°
2026-05-04 18:16 59.79847 149.60202 8292 ft 262 kts 59°
2026-05-04 18:16 59.80688 149.63386 8093 ft 260 kts 59°
2026-05-04 18:17 59.82331 149.69617 7703 ft 258 kts 60°
2026-05-04 18:17 59.83139 149.72690 7512 ft 256 kts 60°
2026-05-04 18:17 59.84761 149.78867 7127 ft 254 kts 60°
2026-05-04 18:18 59.85580 149.81996 6934 ft 252 kts 60°
2026-05-04 18:18 59.86388 149.85086 6763 ft 251 kts 60°
2026-05-04 18:18 59.87195 149.88173 6592 ft 250 kts 60°
2026-05-04 18:18 59.88005 149.91277 6418 ft 249 kts 60°
2026-05-04 18:19 59.89564 149.97267 6080 ft 247 kts 60°
2026-05-04 18:19 59.90361 150.00336 5908 ft 246 kts 60°
2026-05-04 18:19 59.91120 150.03261 5743 ft 245 kts 60°
2026-05-04 18:20 59.91907 150.06300 5573 ft 244 kts 60°
2026-05-04 18:20 59.92482 150.09471 5393 ft 247 kts 80°
2026-05-04 18:20 59.92538 150.12277 5255 ft 242 kts 88°
2026-05-04 18:20 59.92477 150.15985 4941 ft 242 kts 89°
2026-05-04 18:21 59.92400 150.19339 4703 ft 238 kts 90°
2026-05-04 18:21 59.92326 150.22545 4583 ft 231 kts 90°
2026-05-04 18:21 59.92253 150.25681 4504 ft 222 kts 90°
2026-05-04 18:21 59.92182 150.28711 4429 ft 215 kts 89°
2026-05-04 18:22 59.92113 150.31677 4245 ft 214 kts 90°
2026-05-04 18:22 59.92044 150.34634 3805 ft 225 kts 90°
2026-05-04 18:22 59.91968 150.37816 3289 ft 236 kts 90°
2026-05-04 18:22 59.91888 150.41089 2872 ft 235 kts 91°
2026-05-04 18:23 59.91810 150.44182 2820 ft 216 kts 91°
2026-05-04 18:23 59.91732 150.47040 2721 ft 203 kts 91°
2026-05-04 18:23 59.91663 150.49771 2465 ft 187 kts 90°
2026-05-04 18:23 59.91603 150.52293 2236 ft 182 kts 90°
2026-05-04 18:24 59.91542 150.54746 2006 ft 169 kts 91°
2026-05-04 18:24 59.91485 150.56993 1790 ft 157 kts 91°
2026-05-04 18:24 59.91433 150.59053 1588 ft 145 kts 91°
2026-05-04 18:24 59.91384 150.61003 1387 ft 136 kts 91°
2026-05-04 18:25 59.91338 150.62776 1209 ft 123 kts 91°
2026-05-04 18:25 59.91296 150.64442 1043 ft 120 kts 91°
2026-05-04 18:25 59.91247 150.66007 875 ft 119 kts 93°
2026-05-04 18:25 59.91205 150.67659 734 ft 118 kts 91°
2026-05-04 18:26 59.91167 150.69246 593 ft 116 kts 93°
2026-05-04 18:26 59.91128 150.70750 581 ft 95 kts 93°
2026-05-04 18:26 59.91103 150.71808 593 ft 60 kts 93°
2026-05-04 18:26 59.91087 150.72421 596 ft 28 kts 93°
2026-05-04 18:27 59.91082 150.72655 595 ft 7 kts 93°
2026-05-04 18:27 59.91077 150.72852 592 ft 20 kts 85°
2026-05-04 18:27 59.91151 150.73093 593 ft 17 kts 52°
2026-05-04 18:27 59.91212 150.73245 595 ft 17 kts 51°
2026-05-04 18:28 59.91310 150.73346 598 ft 11 kts
2026-05-04 18:28 59.91316 150.73347 598 ft 0 kts